Hourly Data Report for April 17, 2006

TORONTO CITY
ONTARIO

43°40'00.000" N
79°24'00.000" W
112.50 m
6158355
71508
XTO

Download Data

Hourly Data (April 2006)
Hourly Data Report for April 17, 2006
TIME
LST
Temp Definition
°C
Dew Point Definition
°C
Rel Hum Definition
%
Precip. Amount Definition
mm

Wind Dir Definition
10's deg

Wind Spd Definition
km/h
Visibility Definition
km
Stn Press Definition
kPa
Hmdx Definition


Wind Chill Definition


Weather Definition


00:00 8.5 -1.0 51   LegendMM LegendMM   99.87     LegendNANA
01:00 8.1 -0.8 53   LegendMM LegendMM   99.84     LegendNANA
02:00 7.6 0.0 59   LegendMM LegendMM   99.84     LegendNANA
03:00 7.1 0.1 61   LegendMM LegendMM   99.86     LegendNANA
04:00 6.7 0.3 64   LegendMM LegendMM   99.87     LegendNANA
05:00 6.4 0.4 65   LegendMM LegendMM   99.87     LegendNANA
06:00 6.1 0.7 68   LegendMM LegendMM   99.93     LegendNANA
07:00 7.0 1.2 67   LegendMM LegendMM   100.02     LegendNANA
08:00 8.0 1.7 64   LegendMM LegendMM   100.07     LegendNANA
09:00 9.0 1.9 61   LegendMM LegendMM   100.11     LegendNANA
10:00 9.8 2.7 61   LegendMM LegendMM   100.12     LegendNANA
11:00 9.7 2.2 59   LegendMM LegendMM   100.15     LegendNANA
12:00 10.0 3.1 62   LegendMM LegendMM   100.14     LegendNANA
13:00 10.4 3.3 61   LegendMM LegendMM   100.11     LegendNANA
14:00 10.2 2.4 58   LegendMM LegendMM   100.09     LegendNANA
15:00 10.9 3.3 59   LegendMM LegendMM   100.07     LegendNANA
16:00 10.3 3.4 62   LegendMM LegendMM   100.06     LegendNANA
17:00 10.7 3.1 59   LegendMM LegendMM   100.05     LegendNANA
18:00 11.0 3.5 60   LegendMM LegendMM   100.07     LegendNANA
19:00 9.6 3.2 64   LegendMM LegendMM   100.11     LegendNANA
20:00 9.1 3.2 67   LegendMM LegendMM   100.17     LegendNANA
21:00 11.7 3.4 57   LegendMM LegendMM   100.22     LegendNANA
22:00 10.8 2.7 57   LegendMM LegendMM   100.24     LegendNANA
23:00 10.4 2.8 59   LegendMM LegendMM   100.25     LegendNANA

Notes on Data Quality.

Legend

  • E = Estimated
  • M = Missing
  • NA = Not Available*
  • [empty] = Indicates an unobserved value
Date modified: